CZ-6A DEB, 54296

Orbit data source: Space-Track

CZ-6A DEB, 54296 is space debris in SSO originally from a launch on Fri, 11 Nov 2022 UTC launched from the Taiyaun Space Center, China (TSC). Debris objects in space refer to the collection of defunct objects orbiting the Earth. Examples of debris include non-operational satellites, rocket bodies, and fragments generated from explosions, collisions, or faulty payload assembly.

Loading next visibility...
Identifier
54296, 2022-151AP
Orbit
SSO
Country
Flag of CNCN / PRC
Related business
Manufacturer
SAST
Mission
Spacecraft
Bus & Motor
Unknown
Mass
Unknown
Launch date (UTC)
2022-11-11 (4 years ago)
Launch vehicle
Unknown
Launch site
Taiyaun Space Center, China (TSC)
Object type
Payload
Rocket body
Debris
Shape & HBR
Unknown shape, 0.1 m
Radar Cross Section
Small (<0.1 m²)

Expand to show TLE details & history
Last TLE update: 3 days ago

TLE from 3 days ago
0 CZ-6A DEB
1 54296U 22151AP  26170.62987339  .00000895  00000-0  34222-3 0  9998
2 54296  98.7748 214.6695 0029290  25.2788 334.9822 14.32962095187387
Epoch: 2026-06-19T15:07Z
TLE epoch observation values (Epoch: 2026-06-19T15:07:01.060Z)
Latitude
0.00001°
Longitude
80.05898°
Altitude
765.78 km
Speed
7.481 km/s
True Right ascension
14h 18m 40s
True Declination
0° 00' 00"
Sunlit
Object was in full shadow at epoch
Visualization orbit readout
Latitude
Unknown
Longitude
Unknown
Altitude
Unknown
Speed
Unknown
Apparent Right ascension
Unknown
Apparent Declination
Unknown
Sunlit
N/A
Visualization observer readout
Local Sidereal Time
23:19:35
Azimuth
Unknown
Elevation
Unknown
Doppler factor
Unknown
Orbital elements
Apogee altitude
799.954 km
Perigee altitude
758.028 km
Semi-major axis
7,157.128 km
Eccentricity
0.00293
Inclination
98.7748°
RAAN
214.6695°
Arg. of periapsis
25.2788°
True anomaly
334.83979°
Mean anomaly
334.9822°
Eccentric anomaly
334.91104°
Mean motion
3.58455 °/min
Orbital period
100.43 mins
BSTAR
0.00034222
Loading maneuver chart data...
Computing Atmospheric mass density...
Loading historical data...
Loading historical data...
Loading historical data...
Loading historical data...
Loading historical data...
Loading historical data...
Loading historical data...

Documentation

Showing up to 5 results
|